Temperature
15 15 15 16 13 11 12 13 13 14 14 15 15 15 14 14 15 15 15 15 15 15 15 14 14 14 14 14 14 14 14 14 14 14 14 14 13 14 13 13 13 13 13 13 13 13 13 13 13
14 15 15 15 12 12 12 12 13 14 15 15 15 15 14 14 15 15 15 15 15 15 15 14 14 14 14 14 14 14 14 14 14 13 13 13 13 13 13 13 13 13 13 13 13 13 13 13 13
14 15 15 11 11 12 13 13 13 14 15 15 14 14 14 14 14 14 15 15 15 15 14 14 14 14 14 14 14 13 13 13 13 13 13 13 13 13 13 13 13 13 13 13 13 13 13 13 13
14 14 13 10 11 11 12 13 13 13 14 14 14 13 14 14 14 14 14 14 14 14 14 14 14 14 14 13 13 13 13 13 13 13 13 13 13 13 13 13 13 13 13 13 13 13 13 13 13
14 14 11 10 11 11 11 12 13 13 13 14 14 13 13 14 14 14 14 14 14 14 14 14 14 13 13 13 13 13 13 13 13 13 13 13 13 13 13 13 13 13 13 13 13 13 13 13 13
14 11 10 10 11 11 11 13 13 13 13 13 13 12 13 14 14 14 14 14 14 14 13 13 13 13 13 13 13 13 13 13 13 13 13 12 13 13 13 13 13 13 13 13 13 13 13 13 13
12 9 10 10 11 11 12 13 13 12 12 13 14 12 13 13 13 13 13 13 13 13 13 13 13 13 13 13 13 13 12 12 12 12 12 12 12 13 13 13 12 12 12 12 13 13 13 12 12
13 9 10 9 10 11 12 13 13 13 13 14 14 12 13 13 13 13 13 13 12 12 12 12 12 12 12 12 12 12 12 12 12 12 12 12 12 12 12 12 12 12 12 12 12 12 12 12 12
12 9 9 10 10 11 12 12 13 13 13 13 13 13 13 13 13 12 12 12 12 12 12 12 12 12 12 12 12 12 12 12 12 12 12 12 12 12 12 12 12 12 12 12 12 12 12 12 12
10 8 9 10 10 11 12 12 12 12 11 11 12 13 13 13 12 12 12 12 12 12 12 12 12 12 11 12 11 11 11 12 12 12 12 12 12 12 12 12 12 12 12 12 12 11 11 11 12
9 8 9 10 11 12 11 12 12 11 10 11 12 13 13 12 12 12 12 12 12 12 11 11 11 11 11 11 11 11 11 11 11 11 11 11 11 11 11 12 12 11 11 11 11 11 11 11 11
8 9 10 11 12 11 11 11 11 11 12 13 13 13 12 12 12 12 12 12 12 11 11 11 11 11 11 11 11 11 11 11 11 11 11 11 11 11 11 11 11 11 11 11 11 11 11 11 11
8 9 10 10 11 11 11 10 10 11 12 12 12 12 12 12 12 12 12 11 11 11 11 11 11 11 11 11 11 10 10 11 11 11 11 11 11 11 11 11 11 11 11 11 11 10 10 10 10
9 9 9 10 10 10 10 9 9 10 12 12 12 12 12 12 12 12 11 11 11 11 11 11 11 11 10 10 10 10 10 10 10 10 10 10 10 10 10 10 10 10 10 10 10 10 10 10 10
9 8 8 9 9 9 9 9 8 11 11 11 11 11 11 11 11 11 12 11 11 11 11 11 10 10 10 10 10 10 10 10 10 10 10 10 10 10 10 10 10 10 10 10 10 10 9 9 9
8 8 7 8 8 9 9 9 9 11 10 10 10 10 11 11 11 11 11 11 11 11 10 10 10 10 10 10 10 10 9 9 9 9 9 10 10 9 9 9 9 9 9 9 9 9 9 9 9
7 7 7 8 8 8 8 8 8 10 9 9 9 10 10 10 10 11 11 11 10 10 10 10 10 10 10 10 9 9 9 9 9 9 9 9 9 9 9 9 9 9 9 9 9 9 9 8 8
6 6 6 7 8 7 7 7 7 9 8 8 9 9 9 10 10 10 10 10 10 10 10 10 10 10 9 9 9 9 9 9 9 9 9 9 9 9 9 9 8 8 8 8 8 8 8 8 8
6 6 6 7 7 7 6 7 7 7 7 7 8 8 8 9 10 10 10 10 10 10 10 10 10 9 9 9 9 9 9 9 8 8 8 8 8 8 8 8 8 8 8 8 8 8 8 8 7
6 6 6 7 7 7 6 6 7 7 6 7 7 8 8 9 9 9 9 9 9 10 10 9 9 9 9 9 9 9 9 8 8 8 8 8 8 8 8 8 8 8 8 8 7 7 7 7 7
5 6 6 6 6 6 6 6 7 7 7 7 8 8 8 8 9 9 9 9 9 9 9 9 9 9 9 8 8 8 8 8 8 8 8 8 7 7 7 7 7 7 7 7 7 7 7 7 7
6 6 6 6 5 5 5 5 6 6 6 6 7 7 8 8 8 9 9 9 9 9 9 9 9 9 8 8 8 8 8 8 8 8 8 8 7 7 7 7 7 7 7 7 7 7 6 6 6
5 6 5 5 5 4 4 4 6 6 6 6 6 7 7 8 8 8 9 9 9 9 9 9 9 8 8 8 8 8 8 8 8 8 7 7 7 7 7 7 7 6 6 6 6 6 6 6 6
5 5 4 3 3 4 4 4 5 5 6 6 6 7 7 8 8 8 8 8 8 8 8 8 8 8 8 8 8 8 8 7 7 7 7 7 7 7 7 6 6 6 6 6 6 6 5 5 5
5 4 4 4 3 4 4 4 5 6 6 6 6 7 7 8 8 8 8 8 8 8 8 8 8 8 8 8 8 7 7 7 7 7 7 7 7 7 6 6 6 6 6 6 5 5 5 5 5
4 4 4 5 4 4 4 4 5 6 6 6 6 6 7 7 7 7 7 8 8 8 8 8 8 8 8 7 7 7 7 7 7 7 7 6 6 6 6 6 6 5 5 5 5 5 5 4 4
4 3 4 3 3 3 3 3 4 5 5 5 5 6 6 6 6 7 7 7 7 7 8 8 8 7 7 7 7 7 6 6 6 6 6 6 6 6 6 5 5 5 5 5 4 4 4 4 4
4 3 2 3 4 4 4 4 4 5 5 5 4 5 5 6 6 6 6 7 7 7 7 7 7 7 7 7 7 6 6 6 6 6 6 6 5 5 5 5 5 5 5 4 4 4 4 4 4
3 3 3 2 2 3 4 5 5 5 5 5 4 5 5 6 6 6 6 6 6 6 6 7 7 6 6 6 6 6 6 6 6 5 5 5 5 5 5 5 4 4 4 4 4 4 3 3 3
3 2 2 3 2 1 2 4 5 4 4 4 4 5 6 6 5 5 6 6 6 6 6 6 6 6 6 6 5 5 5 5 5 5 5 5 5 4 4 4 4 4 4 4 4 3 3 3 3
Wind_Speed
4 4 3 4 5 3 4 5 3 2 2 1 1 3 5 5 4 3 0 2 4 4 5 8 8 9 9 9 9 9 9 8 8 9 9 9 10 10 10 10 10 9 9 9 9 10 10 10 10
1 2 4 4 4 3 5 5 5 5 3 2 2 2 3 1 0 2 1 2 4 5 6 7 9 10 10 9 9 9 8 8 8 8 8 9 9 9 10 9 9 9 9 9 9 9 9 9 9
2 4 4 4 4 7 6 4 6 3 2 2 2 1 2 2 1 2 2 4 5 5 6 7 10 10 10 9 9 9 8 8 8 8 8 8 8 9 9 8 8 8 8 8 8 8 8 8 8
3 4 4 3 6 6 5 3 3 1 1 1 3 1 1 0 1 2 3 5 6 5 6 8 10 10 9 9 8 8 8 8 8 8 8 8 8 8 8 8 7 7 7 7 7 7 8 8 7
4 4 2 2 6 4 4 4 3 3 2 1 3 2 1 2 2 4 5 6 6 5 5 7 10 10 9 8 8 8 7 7 7 7 7 7 7 7 7 7 7 7 7 7 7 7 7 7 7
4 3 3 6 6 4 4 3 2 2 2 2 4 3 2 1 3 4 5 5 5 5 5 6 9 9 9 9 8 7 7 7 7 7 7 7 7 6 6 6 6 6 6 7 7 7 7 7 7
5 4 4 5 4 5 4 3 4 4 3 4 5 4 2 0 2 4 5 5 5 5 4 4 7 8 8 8 8 8 7 7 7 7 7 7 7 6 6 5 5 5 6 6 6 6 6 6 6
5 4 3 4 5 5 3 1 2 4 4 2 5 5 4 3 4 5 6 5 4 3 3 3 5 6 7 7 8 8 8 7 7 7 7 6 6 6 6 5 5 5 5 5 5 5 5 5 5
4 3 5 6 7 4 1 1 1 0 2 1 2 2 2 6 7 7 5 3 3 3 2 3 4 5 6 6 6 7 7 7 8 8 8 8 7 6 5 5 5 5 5 4 4 4 4 4 4
4 5 8 5 5 3 2 2 2 1 0 1 1 1 3 7 8 8 7 7 6 4 3 2 3 4 5 5 6 6 6 7 7 7 8 8 7 6 5 5 5 5 4 4 4 4 4 4 4
4 6 5 4 3 2 2 3 2 4 4 6 6 5 6 7 8 8 8 7 7 5 4 3 3 4 5 4 5 5 5 6 7 7 7 7 7 6 6 5 5 5 5 4 4 4 4 4 3
3 3 4 3 3 2 3 3 3 6 8 6 7 7 8 9 10 10 9 7 6 5 5 4 3 3 4 5 4 5 4 4 4 5 6 6 4 4 4 4 4 4 3 3 3 3 3 3 3
4 4 3 3 3 3 2 4 4 7 6 3 3 6 9 10 9 8 7 6 5 6 5 4 4 4 4 4 4 4 4 4 4 4 4 5 4 3 2 2 3 3 3 2 2 2 2 2 2
3 3 3 3 3 3 4 6 3 9 4 3 5 7 9 10 9 7 6 7 7 7 6 5 5 4 4 4 4 4 4 4 4 4 4 5 4 3 2 2 2 2 2 1 1 1 1 1 1
1 1 4 4 4 3 2 6 8 8 4 5 6 7 7 8 8 9 9 9 8 7 6 5 5 4 5 4 5 4 4 5 4 3 4 4 4 4 3 2 1 1 1 2 2 2 2 1 1
1 1 3 4 3 3 4 10 8 4 5 6 7 7 7 7 8 8 8 7 7 6 6 6 5 5 5 4 4 4 5 5 4 3 3 4 4 4 4 2 1 1 2 2 1 1 1 1 1
0 3 5 5 3 3 6 9 6 3 5 7 7 8 7 7 6 7 7 7 7 7 7 7 6 6 5 4 4 4 4 4 4 3 3 3 3 4 4 2 1 2 2 1 1 1 1 0 1
5 5 5 6 3 2 6 10 8 5 7 8 8 7 7 8 9 7 7 6 6 6 7 7 6 6 5 4 3 3 3 2 3 3 3 3 3 3 3 2 2 2 2 1 1 1 1 1 0
4 5 6 6 3 3 8 13 12 8 7 9 9 9 9 10 7 5 6 5 5 5 6 7 7 6 5 4 4 3 3 3 2 2 3 4 4 3 3 2 2 2 2 2 2 2 1 1 1
5 6 8 6 2 4 8 13 13 9 9 10 11 11 10 8 6 5 5 5 6 7 7 7 7 7 7 6 4 3 3 2 2 2 2 3 4 4 3 3 2 2 2 2 2 2 1 0 1
7 7 7 6 5 3 6 10 9 6 6 7 8 9 8 9 9 7 7 7 6 7 8 7 8 7 7 6 4 3 3 2 2 2 2 2 3 4 4 4 3 3 3 3 3 3 3 1 0
8 6 6 5 3 4 1 7 9 6 7 8 8 7 8 8 7 7 7 7 7 7 6 6 7 6 6 7 6 6 5 4 4 3 3 2 3 3 3 4 4 3 3 2 3 3 2 3 1
5 2 4 4 4 5 3 5 9 3 6 8 7 7 7 7 7 7 8 8 7 6 6 6 6 6 6 7 7 6 4 3 2 2 3 2 2 2 3 3 3 3 3 3 3 2 2 2 2
3 1 0 0 1 6 7 6 8 5 8 7 6 7 6 6 6 6 5 5 4 4 5 5 6 6 6 7 6 7 6 5 5 4 3 3 2 1 2 3 3 3 3 3 3 3 2 2 2
2 2 1 2 2 7 4 6 9 8 7 7 7 7 5 5 4 4 4 4 5 6 6 6 6 6 6 7 6 7 7 7 7 6 5 4 2 2 3 3 3 3 3 3 3 3 3 3 2
4 5 5 5 5 4 2 7 8 6 5 4 4 4 3 3 3 4 5 5 5 6 7 7 7 6 6 6 6 6 6 5 4 5 5 5 4 4 4 4 3 3 3 3 3 2 3 3 3
4 4 3 2 1 3 6 6 8 3 2 2 2 1 2 3 3 4 4 4 5 5 6 7 7 6 6 6 6 5 5 5 5 4 4 3 3 3 3 4 4 3 4 4 4 3 3 3 3
4 5 3 3 3 5 6 6 5 4 3 2 3 3 4 3 3 3 3 4 4 4 4 5 5 6 5 5 5 5 5 5 5 4 4 4 3 3 3 3 4 3 3 4 4 3 3 3 3
3 3 3 3 3 3 4 6 4 6 5 4 4 4 4 3 3 3 3 3 2 2 3 4 5 4 4 5 4 4 4 4 4 4 4 4 3 4 4 4 4 4 4 4 3 3 4 4 3
4 5 6 4 4 3 3 7 4 4 4 4 4 4 3 3 2 2 2 2 2 2 3 4 4 4 5 4 5 5 4 4 4 4 4 3 3 4 4 4 4 4 4 4 4 4 4 4 4
Wind_Direction
355 41 66 60 64 62 230 239 224 231 219 200 149 136 150 161 166 191 286 127 123 138 157 158 147 136 134 134 134 133 130 129 132 128 124 121 117 115 112 109 105 100 96 93 91 89 87 87 85
56 70 59 68 118 200 249 232 216 223 202 132 90 104 114 192 219 127 158 172 129 137 143 149 145 137 134 131 133 136 134 133 134 133 130 126 121 120 116 112 108 102 98 98 94 91 90 90 89
91 58 91 96 162 196 218 216 212 239 182 147 101 67 159 197 184 182 205 152 121 123 130 143 143 139 135 131 129 134 138 137 136 137 134 130 127 124 118 114 109 105 103 100 97 92 91 92 91
86 55 63 116 218 223 213 222 188 160 77 104 135 120 266 5 190 187 141 132 123 118 125 137 141 138 135 133 130 132 140 143 141 137 134 131 130 126 121 117 113 108 105 101 99 96 94 94 94
65 90 107 228 236 242 242 250 213 180 189 160 144 167 256 347 66 120 128 131 131 126 125 140 140 136 133 134 133 132 134 137 141 138 136 132 124 124 124 119 114 109 108 105 103 101 96 95 94
72 87 153 222 237 256 257 239 191 194 189 168 153 163 242 24 99 128 129 130 130 131 124 135 143 138 135 135 134 133 130 131 133 134 131 129 124 120 123 121 115 113 113 111 109 105 102 99 93
122 129 193 208 229 257 250 201 185 195 205 211 171 159 243 250 144 124 117 114 114 117 112 115 136 138 138 136 133 129 126 122 125 128 125 122 118 116 111 112 115 119 119 115 112 110 108 103 96
134 131 194 205 206 243 247 198 192 182 215 191 149 165 218 207 138 112 103 100 109 107 105 106 116 124 125 131 132 128 125 122 121 121 116 113 110 109 106 101 104 110 114 116 113 112 111 104 96
112 129 213 208 197 228 226 191 298 125 136 154 183 209 211 135 128 120 115 116 129 127 124 119 114 115 120 126 130 126 124 119 112 110 103 94 83 83 89 95 96 103 111 113 110 111 105 99 96
133 194 220 213 195 209 240 210 208 112 166 247 293 338 113 134 147 157 166 172 174 175 173 145 132 125 121 124 117 107 105 105 102 99 98 94 89 80 73 80 86 92 93 96 99 97 90 82 78
171 200 215 231 222 216 237 243 210 171 228 218 213 199 159 160 170 181 187 186 187 182 177 168 151 138 130 118 111 104 102 101 104 104 103 98 87 76 66 58 57 64 70 69 74 76 72 72 70
191 235 215 233 223 214 224 223 227 213 229 218 203 185 173 180 190 194 195 194 184 178 183 175 162 145 139 130 120 122 117 111 109 113 116 107 93 80 66 55 48 56 65 68 66 70 67 63 58
218 241 249 244 241 244 240 236 238 250 248 226 187 178 187 193 201 204 196 187 181 185 185 182 171 164 152 139 136 134 135 134 131 124 125 122 116 112 91 72 61 56 64 74 76 79 68 59 48
220 221 252 270 244 235 232 258 240 252 226 196 195 200 201 200 201 198 193 191 192 192 191 184 179 172 160 158 152 149 147 145 137 133 140 137 131 129 116 96 83 61 64 87 94 112 103 64 46
193 276 290 263 231 228 202 272 239 242 201 208 217 217 215 215 207 205 201 195 194 194 191 190 183 170 168 167 162 153 152 145 144 150 153 150 146 138 129 125 114 82 74 79 83 80 83 73 38
35 274 265 269 217 207 175 252 255 219 192 222 228 230 228 226 218 215 204 197 193 188 188 193 184 175 177 169 160 156 153 147 147 149 147 150 151 146 136 134 144 110 103 99 115 107 80 50 19
214 231 243 275 231 188 196 249 264 230 209 234 236 235 234 237 231 220 206 198 195 192 189 189 185 179 182 168 154 151 150 150 148 145 147 153 156 155 142 145 150 125 111 117 137 109 114 98 349
215 216 236 242 256 198 225 251 263 255 233 239 242 240 236 234 233 222 208 199 196 194 190 188 183 179 170 154 135 127 135 142 143 153 161 157 158 157 143 134 134 124 126 130 136 138 96 121 163
198 211 246 254 250 238 250 261 265 253 246 246 244 239 236 237 238 221 206 196 191 190 187 188 182 179 166 164 168 168 180 180 172 168 167 167 165 161 147 141 134 138 161 172 160 142 113 61 51
233 244 260 281 274 245 270 271 265 244 234 236 235 236 233 233 235 224 206 194 192 193 193 191 188 182 179 180 179 170 161 168 170 160 168 174 171 168 167 163 158 169 169 157 152 143 142 76 65
238 230 242 260 308 295 296 286 264 253 232 240 237 235 233 225 223 222 213 205 197 196 196 196 192 184 179 170 146 123 108 97 130 168 186 188 185 183 178 174 169 179 182 189 189 175 167 180 238
246 232 230 250 272 280 255 281 273 260 263 251 244 237 235 233 226 219 212 207 203 203 193 190 185 180 175 164 164 165 173 184 192 183 183 182 191 188 187 179 179 181 179 189 204 192 185 167 183
226 232 215 229 222 272 253 251 277 265 260 257 244 237 235 229 222 219 213 208 204 192 182 180 174 175 173 172 174 175 180 179 155 154 166 175 178 185 188 182 178 186 188 186 184 194 191 181 181
189 84 8 221 178 255 227 217 273 237 231 250 247 238 235 229 224 221 212 199 193 178 170 167 168 175 174 174 176 179 178 170 164 174 180 186 184 186 195 189 186 195 196 193 193 187 194 203 193
139 131 350 313 247 246 208 219 249 249 234 235 249 248 241 228 216 210 200 192 189 182 178 173 173 179 178 176 181 185 183 179 182 186 190 190 190 206 210 196 194 200 204 201 191 185 199 197 196
197 170 185 217 229 270 230 233 249 258 260 251 252 252 247 236 221 211 208 202 197 192 183 178 179 183 178 178 184 185 180 181 189 189 187 196 202 210 199 192 196 202 202 199 188 195 210 199 202
171 202 192 165 222 265 257 270 294 282 306 324 332 322 271 253 243 226 215 203 199 195 191 185 182 182 182 181 178 178 178 181 188 188 186 192 199 195 186 189 194 199 197 194 185 200 212 206 211
177 157 133 165 203 251 269 261 245 266 266 276 284 280 281 280 265 242 225 211 203 195 186 177 179 182 179 177 181 182 183 187 186 178 183 191 195 182 181 193 195 196 194 192 192 203 209 206 222
163 169 177 171 187 196 265 269 231 224 227 236 251 255 264 267 266 251 239 224 200 173 168 172 173 170 173 178 178 176 184 185 177 181 190 192 193 187 191 197 200 203 205 199 197 210 206 209 224
200 193 176 190 226 202 229 270 273 234 237 239 258 267 273 269 263 248 228 210 187 179 176 177 175 176 181 176 172 179 181 175 179 191 195 190 196 199 194 192 199 207 208 203 201 210 212 213 224
Height
1492 1493 1495 1498 1502 1512 1512 1506 1501 1500 1498 1497 1497 1497 1499 1501 1504 1508 1503 1501 1503 1505 1508 1510 1512 1513 1515 1516 1518 1519 1520 1522 1523 1524 1525 1526 1526 1527 1528 1529 1529 1530 1530 1531 1531 1532 1532 1532 1533
1492 1494 1497 1498 1507 1516 1511 1502 1500 1497 1496 1496 1496 1497 1497 1499 1500 1500 1500 1501 1503 1505 1507 1509 1511 1513 1515 1516 1517 1519 1520 1521 1522 1523 1524 1525 1526 1527 1528 1529 1529 1530 1530 1531 1531 1532 1532 1533 1533
1492 1494 1496 1499 1507 1509 1503 1497 1496 1495 1495 1495 1496 1497 1498 1498 1498 1499 1500 1501 1503 1505 1507 1509 1511 1513 1514 1516 1517 1518 1519 1521 1522 1523 1524 1525 1526 1527 1528 1528 1529 1530 1530 1531 1531 1532 1532 1533 1533
1492 1494 1496 1503 1504 1501 1497 1493 1493 1494 1494 1495 1496 1497 1497 1498 1498 1499 1499 1501 1503 1505 1507 1509 1510 1512 1513 1515 1516 1517 1519 1520 1521 1522 1523 1525 1525 1526 1527 1528 1529 1529 1530 1531 1531 1532 1532 1533 1533
1491 1493 1500 1504 1501 1497 1494 1492 1492 1493 1494 1494 1495 1496 1496 1498 1497 1498 1499 1501 1503 1505 1507 1508 1510 1511 1513 1514 1516 1517 1518 1519 1520 1522 1523 1524 1525 1526 1526 1527 1528 1529 1530 1530 1531 1531 1532 1532 1533
1490 1493 1503 1504 1499 1495 1492 1491 1492 1492 1493 1494 1494 1495 1496 1497 1497 1498 1499 1501 1503 1505 1506 1508 1509 1511 1512 1514 1515 1516 1517 1518 1519 1520 1522 1523 1524 1524 1525 1526 1527 1528 1529 1530 1530 1531 1531 1532 1532
1490 1495 1500 1500 1498 1495 1491 1490 1490 1491 1491 1492 1493 1494 1494 1495 1496 1497 1499 1501 1503 1504 1506 1507 1508 1510 1511 1513 1514 1515 1517 1518 1519 1520 1521 1522 1523 1524 1525 1525 1526 1527 1528 1529 1530 1530 1530 1531 1531
1487 1493 1497 1498 1496 1493 1488 1488 1488 1489 1489 1491 1492 1493 1493 1494 1495 1497 1498 1500 1502 1503 1505 1506 1507 1509 1510 1511 1513 1514 1516 1517 1518 1519 1520 1521 1522 1523 1524 1524 1525 1526 1527 1528 1528 1529 1529 1530 1530
1487 1495 1497 1494 1493 1489 1486 1487 1488 1488 1488 1489 1490 1491 1492 1493 1494 1495 1497 1499 1500 1502 1503 1504 1506 1507 1509 1510 1512 1513 1515 1516 1517 1518 1519 1520 1521 1522 1523 1523 1524 1525 1526 1527 1527 1528 1528 1529 1529
1485 1493 1490 1487 1486 1486 1485 1486 1486 1487 1487 1488 1488 1489 1490 1491 1492 1493 1494 1495 1497 1499 1501 1502 1504 1506 1507 1509 1510 1512 1513 1514 1515 1516 1517 1518 1519 1520 1521 1522 1523 1524 1525 1525 1526 1526 1527 1527 1528
1484 1486 1484 1484 1484 1484 1484 1485 1485 1485 1486 1485 1485 1486 1488 1489 1490 1491 1492 1493 1495 1497 1499 1500 1502 1504 1505 1507 1508 1510 1512 1513 1514 1515 1516 1517 1518 1519 1520 1520 1521 1522 1523 1524 1524 1525 1525 1526 1526
1483 1482 1482 1482 1482 1482 1483 1483 1483 1482 1481 1482 1483 1484 1485 1486 1487 1488 1490 1491 1493 1495 1497 1498 1500 1501 1503 1505 1507 1508 1510 1511 1512 1513 1514 1515 1516 1517 1518 1518 1519 1520 1521 1522 1523 1523 1524 1524 1525
1481 1481 1481 1481 1481 1481 1481 1481 1481 1479 1478 1480 1480 1481 1482 1483 1484 1486 1488 1490 1491 1493 1495 1496 1498 1499 1501 1503 1505 1506 1507 1509 1510 1511 1512 1513 1514 1515 1516 1517 1517 1518 1519 1520 1521 1521 1522 1522 1523
1479 1479 1479 1479 1479 1479 1480 1479 1479 1474 1476 1476 1477 1477 1479 1480 1481 1483 1484 1486 1488 1490 1492 1494 1495 1497 1499 1500 1502 1504 1505 1507 1508 1509 1510 1511 1512 1513 1513 1514 1515 1516 1517 1518 1518 1519 1520 1520 1521
1478 1479 1478 1477 1477 1477 1479 1478 1474 1471 1473 1473 1474 1475 1475 1477 1478 1479 1481 1482 1485 1487 1489 1491 1492 1494 1496 1498 1499 1501 1502 1504 1505 1506 1507 1508 1509 1510 1511 1512 1512 1513 1514 1515 1516 1517 1518 1518 1518
1478 1480 1481 1476 1475 1475 1480 1477 1470 1470 1471 1470 1471 1472 1472 1473 1474 1475 1478 1479 1481 1483 1485 1488 1489 1491 1493 1495 1496 1498 1500 1501 1502 1504 1505 1506 1507 1508 1509 1509 1510 1511 1512 1513 1514 1514 1515 1515 1516
1482 1483 1481 1477 1474 1474 1476 1473 1468 1467 1468 1467 1467 1468 1468 1469 1470 1472 1474 1476 1478 1480 1482 1484 1486 1487 1490 1492 1494 1495 1496 1498 1499 1501 1502 1503 1504 1505 1506 1507 1508 1509 1510 1511 1511 1512 1512 1513 1513
1481 1482 1480 1478 1474 1474 1475 1471 1466 1465 1465 1464 1464 1464 1464 1464 1465 1467 1470 1472 1474 1476 1478 1480 1482 1484 1486 1488 1490 1492 1493 1495 1496 1498 1499 1500 1502 1503 1504 1505 1505 1506 1507 1508 1508 1509 1509 1510 1511
1476 1478 1478 1475 1472 1474 1472 1468 1463 1462 1462 1461 1460 1460 1459 1460 1462 1464 1465 1468 1470 1472 1474 1476 1478 1480 1482 1484 1486 1488 1489 1491 1493 1495 1496 1498 1499 1500 1501 1502 1503 1504 1505 1505 1506 1506 1507 1507 1508
1476 1477 1476 1474 1473 1473 1471 1465 1459 1457 1456 1455 1455 1454 1455 1456 1457 1459 1461 1463 1465 1467 1469 1472 1474 1476 1478 1480 1483 1485 1487 1488 1490 1492 1494 1495 1496 1497 1498 1499 1500 1501 1502 1502 1503 1503 1504 1504 1505
1475 1476 1475 1474 1473 1472 1472 1463 1455 1451 1451 1450 1450 1450 1450 1451 1452 1454 1456 1458 1460 1462 1465 1467 1470 1472 1474 1477 1479 1482 1484 1485 1487 1489 1490 1492 1493 1494 1495 1496 1498 1499 1499 1500 1500 1501 1501 1501 1502
1472 1470 1471 1473 1476 1477 1474 1470 1453 1450 1449 1446 1445 1445 1446 1447 1448 1449 1451 1453 1455 1458 1461 1463 1466 1468 1471 1473 1475 1477 1479 1481 1483 1485 1487 1489 1490 1491 1492 1493 1494 1495 1496 1497 1498 1498 1498 1499 1499
1469 1468 1470 1472 1475 1477 1475 1475 1455 1449 1446 1442 1441 1441 1442 1443 1444 1445 1447 1449 1451 1454 1457 1459 1462 1465 1467 1470 1472 1474 1476 1478 1481 1483 1484 1486 1487 1488 1489 1490 1491 1492 1493 1494 1494 1495 1495 1495 1496
1466 1470 1472 1475 1477 1476 1470 1472 1457 1449 1442 1439 1438 1438 1438 1439 1441 1442 1443 1446 1448 1450 1453 1456 1458 1461 1464 1466 1469 1471 1473 1475 1477 1479 1481 1482 1484 1485 1486 1487 1488 1489 1490 1490 1491 1491 1492 1492 1493
1467 1473 1478 1477 1479 1470 1466 1465 1453 1440 1437 1436 1435 1435 1436 1437 1437 1438 1440 1442 1444 1446 1449 1452 1455 1458 1460 1463 1465 1467 1470 1472 1474 1476 1477 1479 1480 1481 1483 1484 1485 1486 1486 1487 1487 1488 1488 1489 1489
1467 1469 1474 1473 1473 1469 1466 1462 1446 1435 1433 1433 1433 1434 1434 1434 1435 1436 1437 1439 1441 1443 1446 1448 1451 1454 1457 1459 1462 1464 1466 1468 1470 1472 1474 1475 1477 1478 1480 1480 1481 1482 1483 1484 1484 1484 1484 1485 1485
1466 1468 1468 1473 1475 1473 1464 1456 1443 1433 1432 1432 1432 1432 1432 1433 1433 1434 1435 1437 1438 1440 1442 1445 1448 1451 1453 1456 1458 1461 1463 1465 1467 1469 1471 1472 1473 1475 1476 1477 1478 1479 1479 1480 1480 1480 1481 1481 1482
1463 1465 1471 1472 1468 1466 1458 1454 1445 1435 1432 1432 1432 1431 1431 1431 1432 1432 1433 1434 1436 1438 1440 1443 1445 1448 1450 1453 1455 1458 1460 1462 1464 1465 1467 1468 1470 1471 1472 1473 1474 1475 1475 1476 1476 1477 1477 1477 1478
1464 1466 1466 1470 1469 1467 1463 1449 1435 1432 1430 1430 1430 1429 1430 1430 1430 1430 1431 1432 1434 1436 1438 1440 1443 1445 1447 1450 1452 1454 1457 1459 1460 1462 1463 1465 1466 1467 1468 1469 1470 1471 1471 1472 1472 1473 1473 1474 1474
1459 1461 1464 1465 1467 1470 1466 1451 1430 1429 1428 1428 1428 1428 1428 1429 1429 1429 1430 1431 1432 1434 1436 1438 1440 1442 1445 1447 1449 1451 1453 1455 1456 1458 1459 1461 1462 1463 1464 1465 1466 1467 1467 1468 1468 1469 1470 1470 1470